CAPE
nan nan nan nan nan nan nan nan nan nan nan nan nan nan nan nan nan nan nan nan nan nan nan nan nan nan nan nan nan nan nan 0 2 2 6 11 15 15 21 27 27 31 42 45 45 50 55 55 55 60 66 74 83 83 100 108 108 118 123 129 129 129 134 140 140 151 169 204 264 264 299 337 381 381 449 474 461 461 428 382 382 358 337 318 318 297
nan nan nan nan nan nan nan nan nan nan nan nan nan nan nan nan nan nan nan nan nan nan nan nan nan nan nan nan nan nan nan 1 2 2 6 9 14 14 20 27 27 38 46 44 44 48 54 55 55 60 63 72 79 79 86 94 94 103 109 109 109 114 113 124 124 130 155 177 221 221 285 324 403 403 419 435 404 404 358 323 323 327 313 307 307 278
nan nan nan nan nan nan nan nan nan nan nan nan nan nan nan nan nan nan nan nan nan nan nan nan nan nan nan nan nan nan 0 2 3 3 6 9 16 16 23 34 34 43 46 50 50 51 53 55 55 62 70 72 73 73 80 83 83 87 92 92 92 97 102 108 108 120 143 162 195 195 253 296 368 368 376 370 336 336 308 289 289 291 310 321 321 301
nan nan nan nan nan nan nan nan nan nan nan nan nan nan nan nan nan nan nan nan nan nan nan nan nan nan nan nan nan nan 1 3 5 5 8 12 19 19 27 39 39 47 54 54 54 56 57 56 56 58 66 64 70 70 72 74 74 79 79 79 79 84 95 102 102 114 131 155 180 180 208 248 279 279 272 254 230 230 230 262 262 304 322 326 326 296
nan nan nan nan nan nan nan nan nan nan nan nan nan nan nan nan nan nan nan nan nan nan nan nan nan nan nan nan nan nan 0 4 8 8 11 17 25 25 35 47 47 52 58 54 54 50 53 49 49 51 52 54 53 53 55 60 60 60 65 65 65 70 79 90 90 108 120 137 157 157 175 196 207 207 212 207 205 205 211 251 251 290 300 291 291 271
nan nan nan nan nan nan nan nan nan nan nan nan nan nan nan nan nan nan nan nan nan nan nan nan nan nan nan nan nan nan 0 5 10 10 15 19 23 23 30 36 36 45 46 47 47 49 47 44 44 44 45 46 47 47 49 54 54 58 55 59 59 60 68 83 83 90 102 114 132 132 145 158 165 165 176 173 172 172 174 188 188 226 234 247 247 231
nan nan nan nan nan nan nan nan nan nan nan nan nan nan nan nan nan nan nan nan nan nan nan nan nan nan nan nan nan nan 1 3 8 8 10 13 18 18 21 24 24 32 37 39 39 42 42 41 41 41 43 43 48 48 51 51 51 61 56 61 61 66 67 78 78 84 94 102 114 114 120 132 142 142 156 154 147 147 146 151 151 180 189 182 182 188
nan nan nan nan nan nan nan nan nan nan nan nan nan nan nan nan nan nan nan nan nan nan nan nan nan nan nan nan nan nan nan nan nan nan nan nan 1 1 6 13 13 19 23 27 27 35 39 42 42 44 44 45 48 48 56 57 57 62 58 58 58 60 60 66 66 76 78 80 88 88 94 103 110 110 113 120 122 122 123 127 127 131 145 142 142 151
nan nan nan nan nan nan nan nan nan nan nan nan nan nan nan nan nan nan nan nan nan nan nan nan nan nan nan nan nan nan nan nan nan nan nan nan nan nan 0 13 13 18 22 24 24 28 34 35 35 40 38 39 40 40 41 45 45 45 42 44 44 40 44 50 50 54 56 65 68 68 75 83 91 91 93 100 102 102 104 100 100 99 104 115 115 124
nan nan nan nan nan nan nan nan nan nan nan nan nan nan nan nan nan nan nan nan nan nan nan nan nan nan nan nan nan nan nan nan 7 7 17 5 15 15 10 8 8 5 14 13 13 17 19 22 22 24 24 23 24 24 24 22 22 21 19 19 19 19 20 24 24 29 34 39 44 44 50 57 69 69 72 79 79 79 83 76 76 73 81 83 83 90
nan nan nan nan nan nan nan nan nan nan nan nan nan nan nan nan nan nan nan nan nan nan nan nan nan nan nan nan nan nan nan nan nan nan nan 0 4 4 6 3 3 3 3 3 3 3 2 2 2 2 2 3 3 3 3 3 3 4 5 6 6 9 10 13 13 16 20 24 24 24 33 38 45 45 56 59 60 60 65 60 60 61 63 62 62 71
nan nan nan nan nan nan nan nan nan nan nan nan nan nan nan nan nan nan nan nan nan nan nan nan nan nan nan nan nan nan nan nan nan nan nan nan nan nan nan nan nan nan nan nan nan nan nan nan nan nan nan nan nan nan nan nan nan 0 1 3 3 5 8 9 9 13 13 15 18 18 21 22 31 31 38 45 46 46 48 49 49 48 47 47 47 56
nan nan nan nan nan nan nan nan nan nan nan nan nan nan nan nan nan nan nan nan nan nan nan nan nan nan nan nan nan nan nan nan nan nan nan nan nan nan nan nan nan nan nan nan nan nan nan nan nan nan nan nan nan nan nan nan nan nan nan 0 0 2 3 6 6 8 13 16 16 16 16 18 21 21 25 28 31 31 33 30 30 30 33 36 36 44
nan nan nan nan nan nan nan nan nan nan nan nan nan nan nan nan nan nan nan nan nan nan nan nan nan nan nan nan nan nan nan nan nan nan nan nan nan nan nan nan nan nan nan nan nan nan nan nan nan nan nan nan nan nan nan nan nan nan nan nan nan 0 2 3 3 8 11 16 17 17 18 19 19 19 22 23 23 23 24 25 25 28 31 36 36 47
nan nan nan nan nan nan nan nan nan nan nan nan nan nan nan nan nan nan nan nan nan nan nan nan nan nan nan nan nan nan nan nan nan nan nan nan nan nan nan nan nan nan nan nan nan nan nan nan nan nan nan nan nan nan nan nan nan nan nan 0 0 1 3 5 5 8 12 17 18 18 19 22 23 23 23 23 22 22 24 24 24 29 33 41 41 58
nan nan nan nan nan nan nan nan nan nan nan nan nan nan nan nan nan nan nan 0 0 nan 0 nan nan nan nan nan nan nan nan nan nan nan nan nan nan nan nan nan nan nan nan nan nan nan nan nan nan nan nan nan nan nan nan nan nan nan 1 2 2 3 6 8 8 12 15 18 21 21 23 26 26 26 26 24 24 24 25 29 29 32 40 46 46 57
8 5 nan nan nan nan nan nan nan nan nan nan nan nan nan nan 0 0 1 1 1 0 1 0 0 nan nan nan nan nan nan nan nan nan nan nan nan nan nan nan nan nan nan nan nan nan nan nan nan nan nan nan nan nan nan nan nan 0 2 3 3 6 10 14 14 16 17 19 22 22 26 27 29 29 29 26 27 27 30 32 32 37 40 46 46 56
2 nan nan nan nan nan 1 nan nan nan nan nan nan nan nan nan 1 1 2 1 1 nan nan nan nan nan nan nan nan nan nan nan nan nan nan nan nan nan nan nan nan nan nan nan nan nan nan nan nan nan nan nan nan nan nan nan nan 1 4 6 6 9 13 16 16 19 22 24 26 26 25 27 30 30 31 32 31 31 35 34 34 36 40 45 45 52
nan 0 nan 3 3 3 1 nan nan nan nan nan nan nan nan nan nan nan 0 0 0 nan nan nan nan nan nan nan nan nan nan nan nan nan nan nan nan nan nan nan nan nan nan nan nan nan nan nan nan nan nan nan nan nan nan 0 0 1 3 6 6 8 13 18 18 22 23 26 26 26 27 29 31 31 32 33 34 34 34 35 35 36 38 39 39 46
nan nan 4 7 7 4 0 nan nan nan nan nan nan nan nan nan nan nan 1 nan nan nan nan nan nan nan nan nan nan nan nan nan nan nan nan nan nan nan nan nan nan nan nan nan nan nan nan nan nan nan nan nan nan nan nan nan nan 0 3 5 5 8 12 18 18 22 26 26 25 25 27 29 31 31 33 33 33 33 34 35 35 36 37 39 39 44
1 0 2 2 2 2 nan nan nan nan 2 0 nan nan nan nan 0 0 nan nan nan nan nan nan nan 1 4 1 nan nan nan nan nan nan nan nan nan nan nan nan nan nan nan nan nan nan nan nan nan nan nan nan nan nan nan nan nan 0 2 5 5 8 11 17 17 21 25 25 25 25 29 30 32 32 33 32 34 34 35 34 34 35 38 38 38 46
0 0 nan 0 0 2 2 nan 0 0 6 nan nan nan 0 0 nan nan 0 nan nan nan 8 16 16 17 19 14 0 0 nan nan nan nan nan nan nan nan nan nan nan nan nan nan nan nan nan nan nan nan nan nan nan nan nan nan nan nan 1 6 6 9 13 16 16 21 24 26 27 27 29 29 32 32 31 32 32 32 33 35 35 36 38 42 42 46
1 2 3 3 3 2 0 nan nan nan 4 1 4 4 1 1 1 1 7 12 12 8 15 14 14 14 15 10 0 0 nan nan nan nan nan nan nan nan nan nan nan nan nan nan nan nan nan nan nan nan nan nan nan nan nan nan nan nan 1 6 6 10 13 17 17 21 23 25 29 29 29 30 34 34 32 31 32 32 34 34 34 36 36 38 38 48
1 3 8 8 8 0 nan nan nan nan 1 3 2 2 nan nan nan nan 13 12 12 10 18 19 19 14 8 9 4 4 0 nan nan nan nan nan nan nan nan nan nan nan nan nan nan nan nan nan nan nan nan nan nan nan nan nan nan nan 1 5 5 10 14 17 17 20 23 28 29 29 31 33 33 33 33 30 32 32 34 34 34 34 35 38 38 44
nan 1 2 7 7 9 0 nan nan nan nan nan nan nan nan nan 5 5 nan nan nan 1 10 12 12 11 4 11 8 8 nan nan nan nan nan nan nan nan nan nan nan nan nan nan nan nan nan nan nan nan nan nan nan nan nan nan nan nan 1 4 4 8 13 16 16 20 22 24 27 27 29 31 32 32 30 30 31 31 31 30 30 33 31 34 34 36
17 14 17 59 59 146 159 126 143 143 84 3 nan nan nan nan nan nan nan nan nan nan 1 6 6 3 4 10 8 8 nan nan 0 0 1 3 nan nan nan nan nan nan nan nan nan nan nan nan nan nan nan nan nan nan nan nan nan nan 0 3 3 7 10 15 15 19 22 23 26 26 28 28 30 30 28 30 28 28 30 29 29 28 27 27 27 29
140 134 170 206 206 233 252 265 220 220 189 107 25 25 nan nan nan nan nan nan nan nan nan 0 0 nan nan 1 0 0 nan nan nan nan 2 6 8 8 nan nan nan nan nan nan nan nan nan nan nan nan nan nan nan nan nan nan nan nan 0 2 2 4 6 10 10 16 20 21 23 23 25 27 28 28 29 30 28 28 30 26 26 25 23 21 21 25
154 158 178 180 180 188 195 174 132 132 76 54 60 60 18 nan nan nan nan nan nan nan nan 0 0 nan nan nan 1 1 nan nan nan nan nan 5 5 5 nan nan nan nan nan nan nan nan nan nan nan nan nan nan nan nan nan nan nan nan nan 0 0 1 2 4 4 9 13 17 19 19 22 24 27 27 29 30 28 28 27 25 25 25 21 15 15 nan
107 125 137 140 140 127 89 38 9 9 3 8 16 16 3 nan nan nan nan nan nan nan 2 3 3 0 nan nan 1 1 nan nan nan nan nan 2 4 4 nan nan nan nan nan nan nan nan nan nan nan nan nan nan nan nan nan nan nan nan nan nan nan nan nan nan nan 2 6 11 17 17 20 26 28 28 29 28 27 27 24 23 23 23 14 4 4 nan
nan 60 45 40 40 21 nan nan nan nan 1 2 5 5 4 nan nan nan nan nan nan nan 8 8 8 4 1 0 nan nan nan nan nan nan nan 1 5 5 nan nan nan nan nan nan nan nan nan nan nan nan nan nan nan nan nan nan nan nan nan nan nan nan nan nan nan nan 0 4 8 8 17 24 29 29 30 30 27 27 23 19 19 20 7 nan nan nan
nan nan nan nan nan nan nan nan nan nan nan 2 3 3 nan nan nan nan nan nan nan nan 5 6 6 4 4 2 nan nan nan nan nan nan nan 1 4 4 nan nan nan nan nan nan nan nan nan nan nan nan nan nan nan nan nan nan nan nan nan nan nan nan nan nan nan nan nan nan 3 3 9 15 24 24 24 24 21 21 21 20 20 17 0 nan nan nan
nan nan nan nan nan nan nan nan nan nan nan nan nan nan nan nan nan nan nan nan nan nan nan 1 1 7 11 11 6 6 nan nan nan nan nan nan nan nan nan nan nan nan nan nan nan nan nan nan nan nan nan nan nan nan nan nan nan nan nan nan nan nan nan nan nan nan nan nan nan nan nan 2 6 6 7 11 13 13 17 18 18 13 nan nan nan nan
nan nan nan nan nan nan nan nan nan nan nan nan nan nan nan nan nan nan nan nan nan nan nan nan nan 6 8 6 6 6 2 nan nan nan 1 0 15 15 2 nan nan nan nan nan nan nan nan nan nan nan nan nan nan nan nan nan nan nan nan nan nan nan nan nan nan nan nan nan nan nan nan nan nan nan 1 4 4 4 8 8 8 12 nan nan nan nan
nan nan nan nan nan nan nan nan nan nan nan nan nan nan nan nan nan nan nan nan nan nan nan nan nan 1 5 6 6 6 4 nan 13 13 25 25 45 45 18 3 3 8 16 6 6 7 5 1 1 1 nan nan nan nan nan nan nan nan nan nan nan nan nan nan nan nan nan nan nan nan nan nan nan nan nan nan nan nan nan 1 1 5 12 nan nan nan
nan nan nan nan nan nan nan nan nan nan nan nan nan nan nan nan nan nan nan nan nan nan nan nan nan nan 6 11 13 13 10 1 25 25 57 27 15 15 4 nan nan nan nan 2 2 4 6 8 8 20 18 17 nan nan nan nan nan nan nan nan nan nan nan nan nan nan nan nan nan nan nan nan nan nan nan nan nan nan nan 0 0 7 13 21 21 7
nan nan nan nan nan nan nan nan nan nan nan nan nan nan nan nan nan nan nan nan nan nan nan nan nan nan nan 8 15 15 16 3 13 13 53 30 20 20 15 1 1 0 2 1 1 0 1 3 3 12 20 23 8 8 nan nan nan nan nan nan nan nan nan nan nan nan nan nan nan nan nan nan nan nan nan nan nan nan nan nan nan 4 6 10 10 8
nan nan nan nan nan nan nan nan nan nan nan nan nan nan nan nan nan nan nan nan nan nan nan nan nan nan nan nan 2 2 11 7 0 0 10 11 8 8 13 9 9 8 9 7 7 4 4 6 6 5 7 10 9 9 nan nan nan nan nan nan nan nan nan nan nan nan nan nan nan nan nan nan nan nan nan nan nan nan nan nan nan nan 0 1 1 1
nan nan nan nan nan nan nan nan nan nan nan nan nan nan nan nan nan nan nan nan nan nan nan nan nan nan 1 17 2 2 1 1 nan nan nan 0 2 2 8 8 8 9 13 13 13 9 9 10 10 7 5 3 10 10 9 nan nan nan nan nan nan nan nan nan nan nan nan nan nan nan nan nan nan nan nan nan nan nan nan nan nan nan nan nan nan nan
nan nan nan nan nan nan nan nan nan nan nan nan nan nan nan nan nan nan nan nan nan nan nan nan nan nan nan nan 8 8 15 7 1 1 nan nan 0 0 4 7 7 7 10 13 13 16 19 13 13 10 7 4 nan nan nan nan nan nan nan nan nan nan nan nan nan nan nan nan nan nan nan nan nan nan nan nan nan nan nan nan nan nan nan nan nan nan
nan nan nan 4 4 nan nan nan nan nan nan nan nan nan nan nan nan nan nan nan nan nan nan nan nan 0 1 5 2 2 2 nan nan nan nan nan nan nan 0 4 4 6 10 11 11 18 23 18 18 15 12 2 1 1 nan nan nan nan nan nan nan nan nan nan nan nan nan nan nan nan nan nan nan nan nan nan nan nan nan nan nan nan nan nan nan nan
0 1 nan nan nan nan nan nan nan nan nan nan nan nan nan nan 0 0 nan 1 1 nan nan nan nan 0 nan nan nan nan nan nan nan nan nan nan nan nan nan nan nan 2 7 10 10 14 20 17 17 16 11 1 1 1 1 nan nan nan 4 nan nan nan nan nan nan nan nan nan nan nan nan nan nan nan nan nan nan nan nan nan nan nan nan nan nan nan
3 nan nan nan nan nan nan nan nan nan nan 0 nan nan nan 0 4 4 1 nan nan nan nan nan nan 0 nan nan nan nan nan nan nan nan nan nan nan nan nan nan nan nan 2 8 8 13 22 24 24 24 15 7 2 2 nan nan nan nan 10 nan nan nan nan nan nan nan nan nan nan nan nan nan nan nan nan nan nan nan nan nan nan nan nan nan nan nan
nan nan nan nan nan nan nan nan 2 2 5 4 4 4 nan nan nan nan nan nan nan nan nan nan nan 0 nan nan nan nan nan nan nan nan nan nan nan nan nan nan nan nan nan 5 5 11 9 21 21 19 17 12 8 8 8 7 7 nan 2 3 3 nan nan nan nan nan nan nan nan nan nan nan nan nan nan nan nan nan nan nan nan nan nan nan nan nan
nan nan nan nan nan nan nan 1 4 4 8 8 5 5 nan nan nan nan nan nan nan nan nan nan nan nan nan nan nan nan nan nan nan nan nan nan nan nan nan nan nan nan nan nan nan 2 2 6 6 7 7 6 4 4 4 2 2 nan nan nan nan nan nan nan nan nan nan nan nan nan nan nan nan nan nan nan nan nan nan nan nan nan nan nan nan nan
nan nan nan nan nan 1 1 4 5 5 4 1 nan nan nan nan nan nan nan nan nan nan nan nan nan nan nan nan nan nan nan nan nan nan nan nan nan nan nan nan nan nan nan nan nan nan 1 5 5 2 1 2 3 3 1 0 0 nan nan nan nan nan nan nan nan nan nan nan nan nan nan nan nan nan nan nan nan nan nan nan nan nan nan nan nan nan
nan nan nan nan nan 3 8 4 2 2 0 nan nan nan nan nan nan nan nan nan nan 0 nan nan nan nan nan 1 1 1 nan nan nan nan nan nan nan nan nan nan nan nan nan nan nan nan nan 3 3 3 3 3 2 2 0 nan nan nan nan nan nan nan nan nan nan nan nan nan nan nan nan nan nan nan nan nan nan nan nan nan nan nan nan nan nan nan
nan nan 1 2 2 4 1 2 1 1 0 nan nan nan nan nan nan nan nan nan nan 1 2 3 3 1 2 2 1 1 nan nan nan nan nan nan nan nan nan nan nan nan nan nan nan nan nan nan nan 3 4 3 0 0 nan nan nan nan nan nan nan nan nan nan nan nan nan nan nan nan nan nan nan nan nan nan nan nan nan nan nan nan nan nan nan nan
3 7 3 nan nan nan nan 0 nan nan nan nan nan nan nan nan 0 0 1 nan nan 6 10 3 3 2 1 0 nan nan nan nan nan nan nan nan nan nan nan nan nan nan nan nan nan nan nan nan nan nan 2 0 nan nan nan nan nan nan nan nan nan nan nan nan nan nan nan nan nan nan nan nan nan nan nan nan nan nan nan nan nan nan nan nan nan nan
5 2 nan nan nan 0 0 nan nan nan nan 3 3 3 nan 1 35 35 12 3 3 2 1 1 1 1 0 nan nan nan nan nan nan nan nan nan nan nan nan nan nan nan nan nan nan nan nan nan nan nan nan nan nan nan nan nan nan nan nan nan nan nan nan nan nan nan nan nan nan nan nan nan nan nan nan nan nan nan nan nan nan nan nan nan nan nan
nan nan nan 1 1 1 1 nan 1 1 2 4 8 8 nan nan nan nan 1 nan nan 0 0 0 0 0 nan nan nan nan nan nan nan nan nan nan nan nan nan nan nan nan nan nan nan nan nan nan nan nan 4 2 nan nan nan nan nan nan nan nan nan nan nan nan nan nan nan nan nan nan nan nan nan nan nan nan nan nan nan nan nan nan nan nan nan nan
1 nan nan 1 1 3 1 0 1 1 1 3 8 8 4 nan nan nan nan nan nan 0 0 1 1 1 1 nan nan nan 2 2 1 1 0 nan nan nan nan nan nan nan nan nan nan nan nan nan nan nan nan 33 7 7 nan nan nan nan nan nan nan nan nan nan nan nan nan nan nan nan nan nan nan nan nan nan nan nan nan nan nan nan nan nan nan nan
CIN
nan nan nan nan nan nan nan nan nan nan nan nan nan nan nan nan nan nan nan nan nan nan nan nan nan nan nan nan nan nan nan -0 -0 -0 -0 -0 -0 -0 -0 -0 -0 -0 -0 -0 -0 -0 -0 -0 -0 -0 -0 -0 -0 -0 -0 -0 -0 -0 -0 -0 -0 -0 -0 -0 -0 -0 -0 -0 -0 -0 -0 -0 -0 -0 -0 -0 -0 -0 -0 -0 -0 -0 -0 -0 -0 -0
nan nan nan nan nan nan nan nan nan nan nan nan nan nan nan nan nan nan nan nan nan nan nan nan nan nan nan nan nan nan nan -0 -0 -0 -0 -0 -0 -0 -0 -0 -0 -0 -0 -0 -0 -0 -0 -0 -0 -0 -0 -0 -0 -0 -0 -0 -0 -0 -0 -0 -0 -0 -0 -0 -0 -0 -0 -0 -0 -0 -0 -0 -0 -0 -0 -0 -0 -0 -0 -0 -0 -0 -0 -0 -0 -0
nan nan nan nan nan nan nan nan nan nan nan nan nan nan nan nan nan nan nan nan nan nan nan nan nan nan nan nan nan nan -0 -0 -0 -0 -0 -0 -0 -0 -0 -0 -0 -0 -0 -0 -0 -0 -0 -0 -0 -0 -0 -0 -0 -0 -0 -0 -0 -0 -0 -0 -0 -0 -0 -0 -0 -0 -0 -0 -0 -0 -0 -0 -0 -0 -0 -0 -0 -0 -0 -0 -0 -0 -0 -0 -0 -0
nan nan nan nan nan nan nan nan nan nan nan nan nan nan nan nan nan nan nan nan nan nan nan nan nan nan nan nan nan nan -0 -0 -0 -0 -0 -0 -0 -0 -0 -0 -0 -0 -0 -0 -0 -0 -0 -0 -0 -0 -0 -0 -0 -0 -0 -0 -0 -0 -0 -0 -0 -0 -0 -0 -0 -0 -0 -0 -0 -0 -0 -0 -0 -0 -0 -0 -0 -0 -0 -0 -0 -0 -0 -0 -0 -0
nan nan nan nan nan nan nan nan nan nan nan nan nan nan nan nan nan nan nan nan nan nan nan nan nan nan nan nan nan nan -0 -0 -0 -0 -0 -0 -0 -0 -0 -0 -0 -0 -0 -0 -0 -0 -0 -0 -0 -0 -0 -0 -0 -0 -0 -0 -0 -0 -0 -0 -0 -0 -0 -0 -0 -0 -0 -0 -0 -0 -0 -0 -0 -0 -0 -0 -0 -0 -0 -0 -0 -0 -0 -0 -0 -0
nan nan nan nan nan nan nan nan nan nan nan nan nan nan nan nan nan nan nan nan nan nan nan nan nan nan nan nan nan nan -0 -0 -0 -0 -0 -0 -0 -0 -0 -0 -0 -0 -0 -0 -0 -0 -0 -0 -0 -0 -0 -0 -0 -0 -0 -0 -0 -0 -0 -0 -0 -0 -0 -0 -0 -0 -0 -0 -0 -0 -0 -0 -0 -0 -0 -0 -0 -0 -0 -0 -0 -0 -0 -0 -0 -0
nan nan nan nan nan nan nan nan nan nan nan nan nan nan nan nan nan nan nan nan nan nan nan nan nan nan nan nan nan nan -0 -0 -0 -0 -0 -0 -0 -0 -0 -0 -0 -0 -0 -0 -0 -0 -0 -0 -0 -0 -0 -0 -0 -0 -0 -0 -0 -0 -0 -0 -0 -0 -0 -0 -0 -0 -0 -0 -0 -0 -0 -0 -0 -0 -0 -0 -0 -0 -0 -0 -0 -0 -0 -0 -0 -0
nan nan nan nan nan nan nan nan nan nan nan nan nan nan nan nan nan nan nan nan nan nan nan nan nan nan nan nan nan nan nan nan nan nan nan nan -0 -0 -0 -0 -0 -0 -0 -0 -0 -0 -0 -0 -0 -0 -0 -0 -0 -0 -0 -0 -0 -0 -0 -0 -0 -0 -0 -0 -0 -0 -0 -0 -0 -0 -0 -0 -0 -0 -0 -0 -0 -0 -0 -0 -0 -0 -0 -0 -0 -0
nan nan nan nan nan nan nan nan nan nan nan nan nan nan nan nan nan nan nan nan nan nan nan nan nan nan nan nan nan nan nan nan nan nan nan nan nan nan -7 -0 -0 -0 -0 -0 -0 -0 -0 -0 -0 -0 -0 -0 -0 -0 -0 -0 -0 -0 -0 -0 -0 -0 -0 -0 -0 -0 -0 -0 -0 -0 -0 -0 -0 -0 -0 -0 -0 -0 -0 -0 -0 -0 -0 -0 -0 -0
nan nan nan nan nan nan nan nan nan nan nan nan nan nan nan nan nan nan nan nan nan nan nan nan nan nan nan nan nan nan nan nan -0 -0 -0 -0 -0 -0 -0 -0 -0 -0 -0 -0 -0 -0 -0 -0 -0 -0 -0 -0 -0 -0 -0 -0 -0 -0 -0 -0 -0 -0 -0 -0 -0 -0 -0 -0 -0 -0 -0 -0 -0 -0 -0 -0 -0 -0 -0 -0 -0 -0 -0 -0 -0 -0
nan nan nan nan nan nan nan nan nan nan nan nan nan nan nan nan nan nan nan nan nan nan nan nan nan nan nan nan nan nan nan nan nan nan nan -5 -0 -0 -0 -0 -0 -0 -0 -0 -0 -0 -0 -0 -0 -0 -0 -0 -0 -0 -0 -0 -0 -0 -0 -0 -0 -0 -0 -0 -0 -0 -0 -0 -0 -0 -0 -0 -0 -0 -0 -0 -0 -0 -0 -0 -0 -0 -0 -0 -0 -0
nan nan nan nan nan nan nan nan nan nan nan nan nan nan nan nan nan nan nan nan nan nan nan nan nan nan nan nan nan nan nan nan nan nan nan nan nan nan nan nan nan nan nan nan nan nan nan nan nan nan nan nan nan nan nan nan nan -0 -0 -0 -0 -0 -0 -0 -0 -0 -0 -0 -0 -0 -0 -0 -0 -0 -0 -0 -0 -0 -0 -0 -0 -0 -0 -0 -0 -0
nan nan nan nan nan nan nan nan nan nan nan nan nan nan nan nan nan nan nan nan nan nan nan nan nan nan nan nan nan nan nan nan nan nan nan nan nan nan nan nan nan nan nan nan nan nan nan nan nan nan nan nan nan nan nan nan nan nan nan -0 -0 -0 -0 -0 -0 -0 -0 -0 -0 -0 -0 -0 -0 -0 -0 -0 -0 -0 -0 -0 -0 -0 -0 -0 -0 -0
nan nan nan nan nan nan nan nan nan nan nan nan nan nan nan nan nan nan nan nan nan nan nan nan nan nan nan nan nan nan nan nan nan nan nan nan nan nan nan nan nan nan nan nan nan nan nan nan nan nan nan nan nan nan nan nan nan nan nan nan nan -0 -0 -0 -0 -0 -0 -0 -0 -0 -0 -0 -0 -0 -0 -0 -0 -0 -0 -0 -0 -0 -0 -0 -0 -0
nan nan nan nan nan nan nan nan nan nan nan nan nan nan nan nan nan nan nan nan nan nan nan nan nan nan nan nan nan nan nan nan nan nan nan nan nan nan nan nan nan nan nan nan nan nan nan nan nan nan nan nan nan nan nan nan nan nan nan -0 -0 -0 -0 -0 -0 -0 -0 -0 -0 -0 -0 -0 -0 -0 -0 -0 -0 -0 -0 -0 -0 -0 -0 -0 -0 -0
nan nan nan nan nan nan nan nan nan nan nan nan nan nan nan nan nan nan nan -16 -16 nan -18 nan nan nan nan nan nan nan nan nan nan nan nan nan nan nan nan nan nan nan nan nan nan nan nan nan nan nan nan nan nan nan nan nan nan nan -0 -0 -0 -0 -0 -0 -0 -0 -0 -0 -0 -0 -0 -0 -0 -0 -0 -0 -0 -0 -0 -0 -0 -0 -0 -0 -0 -0
-10 -9 nan nan nan nan nan nan nan nan nan nan nan nan nan nan -11 -11 -12 -11 -11 -11 -14 -16 -16 nan nan nan nan nan nan nan nan nan nan nan nan nan nan nan nan nan nan nan nan nan nan nan nan nan nan nan nan nan nan nan nan -0 -0 -0 -0 -0 -0 -0 -0 -0 -0 -0 -0 -0 -0 -0 -0 -0 -0 -0 -0 -0 -0 -0 -0 -0 -0 -0 -0 -0
-9 nan nan nan nan nan -15 nan nan nan nan nan nan nan nan nan -10 -10 -8 -8 -8 nan nan nan nan nan nan nan nan nan nan nan nan nan nan nan nan nan nan nan nan nan nan nan nan nan nan nan nan nan nan nan nan nan nan nan nan -0 -0 -0 -0 -0 -0 -0 -0 -0 -0 -0 -0 -0 -0 -0 -0 -0 -0 -0 -0 -0 -0 -0 -0 -0 -0 -0 -0 -0
nan -46 nan -9 -9 -10 -13 nan nan nan nan nan nan nan nan nan nan nan -7 -7 -7 nan nan nan nan nan nan nan nan nan nan nan nan nan nan nan nan nan nan nan nan nan nan nan nan nan nan nan nan nan nan nan nan nan nan -0 -0 -0 -0 -0 -0 -0 -0 -0 -0 -0 -0 -0 -0 -0 -0 -0 -0 -0 -0 -0 -0 -0 -0 -0 -0 -0 -0 -0 -0 -0
nan nan -8 -7 -7 -7 -12 nan nan nan nan nan nan nan nan nan nan nan -6 nan nan nan nan nan nan nan nan nan nan nan nan nan nan nan nan nan nan nan nan nan nan nan nan nan nan nan nan nan nan nan nan nan nan nan nan nan nan -0 -0 -0 -0 -0 -0 -0 -0 -0 -0 -0 -0 -0 -0 -0 -0 -0 -0 -0 -0 -0 -0 -0 -0 -0 -0 -0 -0 -0
-18 -7 -11 -12 -12 -10 nan nan nan nan -1 -3 nan nan nan nan -3 -3 nan nan nan nan nan nan nan -12 -9 -12 nan nan nan nan nan nan nan nan nan nan nan nan nan nan nan nan nan nan nan nan nan nan nan nan nan nan nan nan nan -0 -0 -0 -0 -0 -0 -0 -0 -0 -0 -0 -0 -0 -0 -0 -0 -0 -0 -0 -0 -0 -0 -0 -0 -0 -0 -0 -0 -0
-1 -7 nan -22 -22 -13 -9 nan -3 -3 -0 nan nan nan -1 -1 nan nan -0 nan nan nan -2 -3 -3 -5 -6 -6 -17 -17 nan nan nan nan nan nan nan nan nan nan nan nan nan nan nan nan nan nan nan nan nan nan nan nan nan nan nan nan -0 -0 -0 -0 -0 -0 -0 -0 -0 -0 -0 -0 -0 -0 -0 -0 -0 -0 -0 -0 -0 -0 -0 -0 -0 -0 -0 -0
-1 -1 -14 -17 -17 -17 -15 nan nan nan -1 -1 -0 -0 -0 -0 -0 -0 -4 -3 -3 -4 -3 -4 -4 -7 -7 -5 -12 -12 nan nan nan nan nan nan nan nan nan nan nan nan nan nan nan nan nan nan nan nan nan nan nan nan nan nan nan nan -0 -0 -0 -0 -0 -0 -0 -0 -0 -0 -0 -0 -0 -0 -0 -0 -0 -0 -0 -0 -0 -0 -0 -0 -0 -0 -0 -0
-9 -13 -14 -15 -15 -24 nan nan nan nan -2 -1 -1 -1 nan nan nan nan -4 -6 -6 -6 -4 -5 -5 -7 -10 -9 -11 -11 -15 nan nan nan nan nan nan nan nan nan nan nan nan nan nan nan nan nan nan nan nan nan nan nan nan nan nan nan -0 -0 -0 -0 -0 -0 -0 -0 -0 -0 -0 -0 -0 -0 -0 -0 -0 -0 -0 -0 -0 -0 -0 -0 -0 -0 -0 -0
nan -21 -25 -22 -22 -11 -19 nan nan nan nan nan nan nan nan nan -13 -13 nan nan nan -15 -8 -6 -6 -4 -9 -8 -9 -9 nan nan nan nan nan nan nan nan nan nan nan nan nan nan nan nan nan nan nan nan nan nan nan nan nan nan nan nan -0 -0 -0 -0 -0 -0 -0 -0 -0 -0 -0 -0 -0 -0 -0 -0 -0 -0 -0 -0 -0 -0 -0 -0 -0 -0 -0 -0
-16 -28 -29 -13 -13 -0 -0 -0 -0 -0 -0 -1 nan nan nan nan nan nan nan nan nan nan -11 -4 -4 -5 -7 -7 -9 -9 nan nan -31 -31 -14 -8 nan nan nan nan nan nan nan nan nan nan nan nan nan nan nan nan nan nan nan nan nan nan -0 -0 -0 -0 -0 -0 -0 -0 -0 -0 -0 -0 -0 -0 -0 -0 -0 -0 -0 -0 -0 -0 -0 -0 -0 -0 -0 -0
-0 -0 -0 -0 -0 -0 -0 -0 -0 -0 -0 -0 -2 -2 nan nan nan nan nan nan nan nan nan -5 -5 nan nan -9 -18 -18 nan nan nan nan -29 -10 -4 -4 nan nan nan nan nan nan nan nan nan nan nan nan nan nan nan nan nan nan nan nan -0 -0 -0 -0 -0 -0 -0 -0 -0 -0 -0 -0 -0 -0 -0 -0 -0 -0 -0 -0 -0 -0 -0 -0 -0 -0 -0 -0
-0 -0 -0 -0 -0 -0 -0 -0 -0 -0 -0 -0 -0 -0 -3 nan nan nan nan nan nan nan nan -3 -3 nan nan nan -15 -15 nan nan nan nan nan -17 -5 -5 nan nan nan nan nan nan nan nan nan nan nan nan nan nan nan nan nan nan nan nan nan -0 -0 -0 -0 -0 -0 -0 -0 -0 -0 -0 -0 -0 -0 -0 -0 -0 -0 -0 -0 -0 -0 -0 -0 -5 -5 nan
-0 -0 -0 -0 -0 -0 -0 -0 -0 -0 -0 -0 -0 -0 -6 nan nan nan nan nan nan nan -2 -1 -1 -3 nan nan -11 -11 nan nan nan nan nan -16 -4 -4 nan nan nan nan nan nan nan nan nan nan nan nan nan nan nan nan nan nan nan nan nan nan nan nan nan nan nan -0 -0 -0 -0 -0 -0 -0 -0 -0 -0 -0 -0 -0 -0 -0 -0 -0 -1 -30 -30 nan
nan -0 -0 -0 -0 -0 nan nan nan nan -0 -0 -0 -0 -0 nan nan nan nan nan nan nan -1 -1 -1 -2 -3 -6 nan nan nan nan nan nan nan -10 -2 -2 nan nan nan nan nan nan nan nan nan nan nan nan nan nan nan nan nan nan nan nan nan nan nan nan nan nan nan nan -0 -0 -0 -0 -0 -0 -0 -0 -0 -0 -0 -0 -0 -0 -0 -1 -25 nan nan nan
nan nan nan nan nan nan nan nan nan nan nan -0 -0 -0 nan nan nan nan nan nan nan nan -1 -1 -1 -3 -3 -3 nan nan nan nan nan nan nan -1 -3 -3 nan nan nan nan nan nan nan nan nan nan nan nan nan nan nan nan nan nan nan nan nan nan nan nan nan nan nan nan nan nan -0 -0 -0 -0 -0 -0 -0 -0 -0 -0 -0 -0 -0 -1 -47 nan nan nan
nan nan nan nan nan nan nan nan nan nan nan nan nan nan nan nan nan nan nan nan nan nan nan -3 -3 -1 -1 -1 -1 -1 nan nan nan nan nan nan nan nan nan nan nan nan nan nan nan nan nan nan nan nan nan nan nan nan nan nan nan nan nan nan nan nan nan nan nan nan nan nan nan nan nan -6 -2 -2 -0 -0 -0 -0 -0 -0 -0 -0 nan nan nan nan
nan nan nan nan nan nan nan nan nan nan nan nan nan nan nan nan nan nan nan nan nan nan nan nan nan -0 -1 -2 -2 -2 -7 nan nan nan -21 -23 -4 -4 -19 nan nan nan nan nan nan nan nan nan nan nan nan nan nan nan nan nan nan nan nan nan nan nan nan nan nan nan nan nan nan nan nan nan nan nan -4 -1 -0 -0 -0 -0 -0 -0 nan nan nan nan
nan nan nan nan nan nan nan nan nan nan nan nan nan nan nan nan nan nan nan nan nan nan nan nan nan -1 -1 -1 -2 -2 -5 nan -6 -6 -8 -7 -1 -1 -5 -7 -7 -2 -1 -2 -2 -3 -3 -8 -8 -12 nan nan nan nan nan nan nan nan nan nan nan nan nan nan nan nan nan nan nan nan nan nan nan nan nan nan nan nan nan -4 -4 -1 -0 nan nan nan
nan nan nan nan nan nan nan nan nan nan nan nan nan nan nan nan nan nan nan nan nan nan nan nan nan nan -0 -1 -1 -1 -2 -20 -6 -6 -2 -5 -6 -6 -8 nan nan nan nan -2 -2 -1 -1 -3 -3 -1 -2 -2 nan nan nan nan nan nan nan nan nan nan nan nan nan nan nan nan nan nan nan nan nan nan nan nan nan nan nan -8 -8 -1 -0 -0 -0 -11
nan nan nan nan nan nan nan nan nan nan nan nan nan nan nan nan nan nan nan nan nan nan nan nan nan nan nan -1 -0 -0 -1 -14 -10 -10 -0 -2 -2 -2 -2 -11 -11 -13 -5 -3 -3 -3 -2 -2 -2 -0 -0 -0 -12 -12 nan nan nan nan nan nan nan nan nan nan nan nan nan nan nan nan nan nan nan nan nan nan nan nan nan nan nan -4 -2 -0 -0 -0
nan nan nan nan nan nan nan nan nan nan nan nan nan nan nan nan nan nan nan nan nan nan nan nan nan nan nan nan -4 -4 -2 -6 -12 -12 -3 -2 -2 -2 -1 -4 -4 -6 -2 -1 -1 -2 -2 -1 -1 -1 -0 -1 -8 -8 nan nan nan nan nan nan nan nan nan nan nan nan nan nan nan nan nan nan nan nan nan nan nan nan nan nan nan nan -12 -8 -8 -5
nan nan nan nan nan nan nan nan nan nan nan nan nan nan nan nan nan nan nan nan nan nan nan nan nan nan -5 -0 -6 -6 -8 -9 nan nan nan -9 -5 -5 -1 -2 -2 -3 -3 -2 -2 -2 -1 -1 -1 -1 -1 -3 -3 -3 -13 nan nan nan nan nan nan nan nan nan nan nan nan nan nan nan nan nan nan nan nan nan nan nan nan nan nan nan nan nan nan nan
nan nan nan nan nan nan nan nan nan nan nan nan nan nan nan nan nan nan nan nan nan nan nan nan nan nan nan nan -2 -2 -2 -4 -11 -11 nan nan -7 -7 -1 -1 -1 -3 -4 -4 -4 -2 -1 -1 -1 -2 -1 -3 nan nan nan nan nan nan nan nan nan nan nan nan nan nan nan nan nan nan nan nan nan nan nan nan nan nan nan nan nan nan nan nan nan nan
nan nan nan -3 -3 nan nan nan nan nan nan nan nan nan nan nan nan nan nan nan nan nan nan nan nan -16 -13 -7 -10 -10 -9 nan nan nan nan nan nan nan -5 -1 -1 -2 -3 -3 -3 -2 -1 -2 -2 -2 -1 -3 -4 -4 nan nan nan nan nan nan nan nan nan nan nan nan nan nan nan nan nan nan nan nan nan nan nan nan nan nan nan nan nan nan nan nan
-3 -5 nan nan nan nan nan nan nan nan nan nan nan nan nan nan -15 -15 nan -14 -14 nan nan nan nan -18 nan nan nan nan nan nan nan nan nan nan nan nan nan nan nan -3 -2 -2 -2 -2 -1 -3 -3 -3 -3 -5 -3 -3 -3 nan nan nan -4 nan nan nan nan nan nan nan nan nan nan nan nan nan nan nan nan nan nan nan nan nan nan nan nan nan nan nan
-0 nan nan nan nan nan nan nan nan nan nan -21 nan nan nan -17 -7 -7 -9 nan nan nan nan nan nan -12 nan nan nan nan nan nan nan nan nan nan nan nan nan nan nan nan -5 -1 -1 -1 -1 -1 -1 -1 -4 -6 -6 -6 nan nan nan nan -2 nan nan nan nan nan nan nan nan nan nan nan nan nan nan nan nan nan nan nan nan nan nan nan nan nan nan nan
nan nan nan nan nan nan nan nan -11 -11 -9 -11 -11 -11 nan nan nan nan nan nan nan nan nan nan nan -8 nan nan nan nan nan nan nan nan nan nan nan nan nan nan nan nan nan -1 -1 -1 -4 -1 -1 -1 -3 -3 -4 -4 -4 -4 -4 nan -12 -8 -8 nan nan nan nan nan nan nan nan nan nan nan nan nan nan nan nan nan nan nan nan nan nan nan nan nan
nan nan nan nan nan nan nan -14 -9 -9 -7 -6 -8 -8 nan nan nan nan nan nan nan nan nan nan nan nan nan nan nan nan nan nan nan nan nan nan nan nan nan nan nan nan nan nan nan -2 -5 -2 -2 -3 -5 -4 -3 -3 -3 -4 -4 nan nan nan nan nan nan nan nan nan nan nan nan nan nan nan nan nan nan nan nan nan nan nan nan nan nan nan nan nan
nan nan nan nan nan -10 -14 -8 -9 -9 -11 -15 nan nan nan nan nan nan nan nan nan nan nan nan nan nan nan nan nan nan nan nan nan nan nan nan nan nan nan nan nan nan nan nan nan nan -3 -1 -1 -5 -9 -5 -3 -3 -3 -3 -3 nan nan nan nan nan nan nan nan nan nan nan nan nan nan nan nan nan nan nan nan nan nan nan nan nan nan nan nan nan
nan nan nan nan nan -9 -3 -8 -13 -13 -20 nan nan nan nan nan nan nan nan nan nan -10 nan nan nan nan nan -6 -7 -7 nan nan nan nan nan nan nan nan nan nan nan nan nan nan nan nan nan -2 -2 -3 -3 -3 -3 -3 -3 nan nan nan nan nan nan nan nan nan nan nan nan nan nan nan nan nan nan nan nan nan nan nan nan nan nan nan nan nan nan nan
nan nan -9 -10 -10 -7 -12 -12 -14 -14 -13 nan nan nan nan nan nan nan nan nan nan -10 -7 -5 -5 -5 -4 -4 -4 -4 nan nan nan nan nan nan nan nan nan nan nan nan nan nan nan nan nan nan nan -3 -1 -1 -3 -3 nan nan nan nan nan nan nan nan nan nan nan nan nan nan nan nan nan nan nan nan nan nan nan nan nan nan nan nan nan nan nan nan
-4 -2 -5 nan nan nan nan -15 nan nan nan nan nan nan nan nan -20 -20 -14 nan nan -4 -1 -3 -3 -3 -4 -5 nan nan nan nan nan nan nan nan nan nan nan nan nan nan nan nan nan nan nan nan nan nan -1 -1 nan nan nan nan nan nan nan nan nan nan nan nan nan nan nan nan nan nan nan nan nan nan nan nan nan nan nan nan nan nan nan nan nan nan
-5 -7 nan nan nan -12 -12 nan nan nan nan -8 -11 -11 nan -25 -0 -0 -3 -8 -8 -7 -5 -4 -4 -4 -4 nan nan nan nan nan nan nan nan nan nan nan nan nan nan nan nan nan nan nan nan nan nan nan nan nan nan nan nan nan nan nan nan nan nan nan nan nan nan nan nan nan nan nan nan nan nan nan nan nan nan nan nan nan nan nan nan nan nan nan
nan nan nan -6 -6 -7 -8 nan -10 -10 -7 -5 -4 -4 nan nan nan nan -13 nan nan -9 -7 -6 -6 -5 nan nan nan nan nan nan nan nan nan nan nan nan nan nan nan nan nan nan nan nan nan nan nan nan -1 -0 nan nan nan nan nan nan nan nan nan nan nan nan nan nan nan nan nan nan nan nan nan nan nan nan nan nan nan nan nan nan nan nan nan nan
-3 nan nan -6 -6 -4 -6 -8 -5 -5 -5 -4 -3 -3 -8 nan nan nan nan nan nan -11 -9 -8 -8 -6 -6 nan nan nan -9 -8 -9 -9 -13 nan nan nan nan nan nan nan nan nan nan nan nan nan nan nan nan -0 -0 -0 nan nan nan nan nan nan nan nan nan nan nan nan nan nan nan nan nan nan nan nan nan nan nan nan nan nan nan nan nan nan nan nan
Wind_Speed
5 5 4 5 5 5 6 7 7 7 8 8 8 7 8 9 9 9 11 11 10 9 9 9 10 10 12 16 19 21 23 23 24 24 24 24 23 23 23 23 22 22 22 22 22 21 21 21 21 21 21 21 21 21 21 21 21 21 21 21 21 21 21 21 21 21 21 22 22 22 21 20 20 19 19 20 20 20 20 21 21 21 21 20 19 19
7 6 5 5 5 6 6 7 7 7 7 8 8 8 8 9 9 9 9 10 10 9 9 9 9 10 11 13 17 20 22 23 23 24 24 23 23 23 23 23 22 22 22 22 21 21 21 21 21 21 21 21 21 20 21 20 20 20 20 20 20 20 20 20 20 21 21 21 21 21 21 20 20 19 19 19 19 19 20 20 20 20 20 20 20 19
7 7 6 6 6 7 7 7 7 7 7 8 8 9 9 9 9 9 9 9 9 9 8 8 9 9 10 12 15 19 21 22 23 23 23 23 23 23 23 23 22 22 22 22 21 21 21 21 21 21 20 20 20 20 20 20 20 19 19 19 19 19 19 19 19 19 20 20 20 20 20 20 19 19 19 18 18 18 19 19 19 19 20 19 19 19
7 7 7 6 6 6 7 7 7 7 7 8 9 9 9 9 9 9 9 9 8 8 9 9 9 9 9 10 13 16 20 21 22 23 23 23 23 23 23 22 22 22 22 22 22 21 21 21 20 20 20 20 19 19 19 19 18 18 18 18 18 18 17 18 18 18 18 18 18 18 18 18 18 18 18 18 17 17 18 18 18 19 19 19 19 19
7 7 7 6 6 6 6 7 7 7 7 7 8 8 8 8 8 8 8 8 8 8 8 8 8 8 8 8 11 15 19 21 22 23 23 23 23 23 23 22 22 22 22 22 21 21 21 20 20 20 19 19 19 18 18 18 18 18 17 17 17 17 17 17 17 17 17 17 17 16 16 16 17 17 17 17 17 17 17 17 17 17 18 18 18 18
7 7 7 6 6 6 6 6 6 6 6 6 7 7 7 7 7 7 7 7 8 8 8 7 7 8 8 8 11 15 18 20 22 22 22 23 23 23 22 22 22 22 21 21 21 20 20 20 19 19 19 18 18 18 18 18 18 17 17 17 17 17 17 17 17 17 17 17 16 16 15 15 15 16 16 16 16 16 16 16 17 17 17 18 18 19
7 7 7 6 6 6 6 6 6 6 6 6 6 6 7 6 6 6 7 7 7 7 7 7 7 8 8 9 11 14 16 18 19 20 21 22 22 21 21 21 21 21 21 20 20 20 20 19 19 19 18 18 18 18 18 18 18 17 17 17 17 17 17 17 17 17 17 17 16 16 15 15 15 15 16 16 16 16 16 16 16 17 17 18 19 19
8 7 7 7 7 6 6 6 6 6 6 6 6 6 6 6 6 6 7 7 7 6 6 7 7 7 7 7 9 10 10 12 13 14 16 17 18 18 19 19 20 20 20 20 20 19 19 19 19 19 18 18 18 18 18 17 17 17 17 17 17 17 17 17 17 17 17 17 17 16 16 16 16 16 16 16 16 16 16 16 17 17 17 18 19 19
9 9 8 8 8 8 7 7 6 6 6 6 6 6 7 7 7 7 7 7 6 5 5 6 6 7 7 6 6 6 8 9 9 9 11 10 11 12 15 16 17 18 19 19 19 19 19 19 19 18 18 18 18 18 17 17 17 17 17 17 16 16 16 16 16 16 16 16 16 16 16 16 16 16 16 16 16 16 16 16 16 17 17 18 18 19
9 9 9 8 7 7 8 8 7 6 6 6 7 7 7 8 8 8 8 8 6 5 5 6 7 7 7 5 5 5 7 9 11 13 13 13 13 14 15 15 15 16 18 18 19 19 19 19 18 18 18 18 17 17 17 17 17 16 16 16 16 16 16 16 16 16 16 16 16 16 16 16 16 16 16 16 16 16 16 16 16 16 17 17 18 18
8 8 8 7 7 6 7 7 6 6 5 6 6 6 7 7 7 8 9 8 7 6 5 6 6 6 7 6 5 4 5 6 8 10 13 14 16 17 16 16 16 16 18 18 18 18 18 18 18 17 17 17 17 16 16 16 16 16 16 16 15 15 15 15 15 15 15 15 16 16 16 16 16 16 16 16 16 16 16 16 16 16 17 17 18 18
7 7 6 6 6 5 5 6 6 5 5 5 5 5 6 6 6 6 7 8 7 7 7 6 6 6 7 6 6 5 4 5 5 6 7 9 10 11 11 11 12 13 14 14 15 15 16 16 16 16 16 15 15 15 15 15 15 15 15 15 15 15 15 15 15 15 15 15 15 16 16 16 16 16 16 16 16 16 16 16 16 16 17 17 18 18
6 5 5 5 5 5 5 5 5 5 5 5 6 6 5 5 5 5 6 6 7 7 8 7 7 6 6 6 6 5 4 5 5 5 5 5 5 5 5 5 6 6 7 8 8 9 12 13 14 14 14 14 14 15 15 14 15 15 15 15 16 16 16 16 16 16 16 16 16 16 16 16 16 16 16 16 16 16 16 16 16 16 17 17 17 18
6 5 5 5 5 5 5 6 6 6 6 6 6 6 6 5 5 5 5 5 6 7 7 8 8 7 6 6 6 5 5 4 4 5 5 5 4 4 4 4 5 5 4 4 5 6 8 9 9 10 12 12 13 13 13 14 15 15 16 16 16 16 16 17 16 16 16 16 16 16 16 15 15 15 15 15 15 15 16 16 16 16 17 17 18 18
5 5 6 6 6 5 5 6 6 7 7 6 6 5 5 5 5 5 5 5 6 6 6 7 8 8 6 6 5 4 5 4 4 5 5 5 4 4 3 4 5 5 4 4 5 6 7 6 6 6 7 9 9 10 12 13 14 16 16 17 17 17 17 17 17 17 17 16 16 16 16 16 16 15 15 16 16 16 16 16 16 16 17 17 18 18
5 5 6 6 5 5 5 5 6 6 6 5 5 5 5 5 5 4 5 5 5 5 5 6 6 6 6 5 4 4 4 4 4 4 5 5 4 3 4 3 4 4 4 5 5 5 5 5 5 5 6 8 11 13 14 14 15 16 17 17 17 17 17 17 17 17 17 17 16 16 16 16 16 16 16 16 16 16 16 16 16 17 17 18 18 18
5 5 6 6 6 6 6 6 6 6 5 4 4 4 4 4 4 4 4 4 4 4 4 4 5 5 5 5 4 3 3 3 3 3 4 5 4 3 4 3 4 5 5 5 5 5 4 4 5 5 6 9 12 14 15 15 16 17 17 17 17 17 17 17 17 17 17 17 17 16 16 16 16 16 16 16 16 16 16 16 17 17 17 18 18 18
5 5 5 5 5 6 6 6 5 5 4 3 3 3 3 4 4 4 5 5 5 5 4 4 4 4 4 5 4 2 2 2 2 3 4 5 5 3 3 3 3 5 5 6 5 5 5 5 5 6 7 11 13 14 15 16 16 17 17 18 18 18 18 17 17 17 17 17 17 17 16 16 16 16 16 16 16 16 16 16 17 17 17 18 18 18
4 4 4 5 5 6 6 5 4 3 2 3 3 3 3 4 4 5 6 5 6 6 6 5 5 4 5 6 6 4 2 2 3 3 4 5 5 3 2 2 3 5 6 6 6 5 5 5 6 9 11 13 14 15 16 17 17 17 18 18 18 18 18 18 18 17 17 17 17 17 16 16 16 16 16 16 16 16 16 16 16 17 17 17 18 18
5 4 4 5 6 6 6 5 4 3 3 3 4 4 5 5 5 5 6 5 5 5 5 6 5 5 5 6 6 6 4 3 3 4 4 5 6 5 2 2 3 5 6 6 6 5 5 5 6 8 11 13 14 15 16 17 17 18 18 18 18 18 18 18 18 18 17 17 17 17 16 16 16 16 15 15 15 15 16 16 16 16 17 17 17 18
7 6 5 5 5 5 5 4 4 4 5 5 5 5 5 5 5 5 4 4 4 4 4 4 5 5 5 6 6 6 5 4 4 4 3 4 5 5 3 3 4 5 7 7 6 5 5 5 5 6 9 12 14 15 16 17 17 18 18 19 19 19 18 18 18 18 17 17 17 17 16 16 16 16 15 15 15 15 15 16 16 16 16 17 17 18
7 6 5 5 5 5 5 5 6 7 8 7 6 5 5 4 4 3 3 3 3 4 4 4 5 5 6 7 8 8 7 5 4 4 3 4 5 5 4 3 4 5 6 6 5 4 4 5 5 6 9 12 14 15 16 17 17 18 19 19 19 19 19 18 18 18 17 17 17 16 16 16 16 15 15 15 15 15 15 15 16 16 16 17 17 17
8 7 7 6 6 6 6 6 6 7 8 8 7 6 3 3 3 3 3 3 4 5 5 5 6 6 6 7 7 7 7 5 4 4 4 5 5 5 4 4 4 5 6 6 5 4 4 4 5 6 9 13 14 15 16 17 17 18 19 19 19 19 19 18 18 18 17 17 17 16 16 16 16 15 15 15 15 15 15 15 15 15 16 16 17 17
8 8 7 7 6 6 5 6 6 6 6 6 6 5 4 4 4 3 3 4 4 5 5 6 6 6 6 6 6 6 5 4 4 4 4 5 5 5 4 4 5 6 7 6 5 4 3 4 5 5 6 10 13 14 15 16 17 18 19 19 19 19 19 18 18 18 17 17 17 16 16 16 15 15 15 14 14 14 15 15 15 15 15 16 16 17
7 7 7 7 8 9 9 8 8 7 7 6 5 4 4 5 4 4 4 4 4 4 5 6 6 6 5 5 4 4 3 3 3 3 3 4 4 4 4 4 5 6 7 5 4 3 3 4 4 4 4 7 10 13 15 16 17 19 19 19 19 19 19 18 18 17 17 17 16 16 16 15 15 15 14 14 14 14 14 14 14 14 15 15 16 16
12 11 11 13 16 18 19 18 16 14 12 9 6 5 4 4 4 4 4 4 4 4 5 6 6 6 5 4 4 4 3 3 3 3 3 3 4 4 4 3 4 5 6 5 4 3 3 4 4 4 3 5 8 11 13 16 17 19 19 19 19 19 18 18 17 17 17 16 16 16 15 15 15 14 14 14 14 14 14 14 14 14 14 14 14 14
20 20 21 21 20 20 19 18 18 17 17 14 12 9 7 5 4 5 5 4 3 4 4 5 6 6 5 4 4 4 3 3 2 2 3 3 4 4 4 3 4 5 6 5 4 4 4 5 4 4 3 4 5 8 12 15 17 18 19 19 19 18 18 17 17 16 16 16 16 15 15 15 14 14 14 14 13 13 13 13 13 13 13 13 11 10
20 19 18 17 16 16 15 14 14 14 15 15 16 15 10 6 4 5 5 4 3 4 4 5 6 6 5 5 4 4 3 3 3 3 3 3 4 4 3 3 3 4 4 4 4 4 5 5 4 4 3 4 4 6 10 13 16 17 18 18 17 17 17 16 16 16 15 15 15 15 14 14 14 14 13 13 13 13 13 13 13 12 12 9 6 3
15 14 14 13 12 12 12 11 11 12 13 15 15 14 10 5 4 4 4 3 3 4 5 6 6 5 5 5 5 4 4 4 3 3 2 2 3 3 2 2 2 2 3 3 3 3 3 4 3 3 3 4 5 5 6 10 12 13 14 15 15 15 15 15 15 14 14 14 14 14 13 13 13 13 13 12 12 12 12 12 12 10 8 5 3 2
7 7 7 8 8 8 8 7 8 9 12 13 13 12 9 5 3 4 4 3 3 4 6 6 6 5 5 5 5 4 4 3 3 2 2 2 3 3 2 2 2 2 1 2 2 3 3 3 2 2 2 3 4 4 4 5 6 7 8 10 11 11 13 13 13 13 13 13 13 13 12 12 12 12 12 11 11 11 11 12 10 8 3 2 1 2
2 3 3 4 4 4 4 4 5 6 8 9 9 9 7 5 4 3 4 3 3 4 5 6 6 5 5 4 4 4 3 3 2 2 2 2 3 3 2 2 2 2 1 1 2 3 3 2 2 2 1 2 2 3 3 4 4 4 4 5 5 7 10 11 11 11 11 11 11 11 11 11 11 11 11 11 10 10 11 11 10 7 3 2 2 2
2 3 3 3 3 3 3 3 3 4 4 5 5 5 5 5 4 4 3 3 3 3 4 5 6 6 5 5 5 5 4 3 3 3 3 3 3 3 2 3 3 3 2 2 3 3 3 3 2 2 2 2 2 2 3 3 3 3 3 3 4 5 8 8 9 9 9 9 10 10 10 10 10 10 10 10 10 10 10 10 9 7 3 2 2 3
3 3 3 4 3 3 3 3 3 3 3 3 3 4 4 5 5 5 4 3 3 3 3 5 6 6 6 6 6 6 5 4 4 5 5 4 3 3 2 2 3 3 2 2 3 3 3 3 3 3 2 2 2 2 2 3 4 4 4 4 4 4 6 6 6 6 6 6 7 8 9 9 9 9 9 9 9 9 9 9 9 8 5 3 3 4
3 4 4 4 3 3 3 3 3 3 3 3 4 4 4 4 4 5 5 4 3 3 3 4 5 6 6 6 6 6 6 4 5 6 6 4 3 3 2 3 3 4 4 3 3 3 3 3 3 3 3 2 2 2 2 3 3 4 4 4 4 4 4 4 3 3 4 4 4 4 5 5 6 7 8 8 8 8 9 9 9 9 8 5 4 4
3 4 4 3 3 3 4 3 3 3 3 4 4 4 4 4 4 4 4 4 4 4 4 4 5 5 6 6 7 7 6 5 5 6 6 4 4 3 3 3 3 4 5 5 5 4 4 4 5 5 4 3 3 2 2 2 2 2 2 3 4 4 4 3 3 3 3 3 2 2 3 2 3 4 5 6 7 8 9 9 9 10 10 9 7 5
3 4 4 3 3 3 4 4 4 4 4 4 4 4 4 4 4 4 4 4 4 5 5 5 5 5 6 6 7 7 7 5 5 6 7 5 4 4 4 4 3 4 4 5 5 5 5 6 6 7 7 6 4 3 2 1 1 1 2 3 3 4 3 3 3 3 3 3 3 2 2 2 2 3 3 5 7 8 9 9 9 10 10 10 9 8
3 3 3 3 3 3 4 4 4 3 4 4 4 4 4 4 4 4 4 4 4 5 5 6 6 6 7 7 7 7 7 6 6 7 8 7 6 5 4 4 4 4 4 5 6 6 6 6 7 7 7 6 5 4 2 1 1 1 2 3 3 4 4 3 2 2 2 3 3 3 3 3 2 3 3 5 6 7 7 8 9 9 10 10 10 10
3 4 4 3 3 3 3 3 3 3 3 4 4 4 4 4 5 5 5 5 5 5 5 5 5 7 9 10 9 9 9 9 9 9 9 8 7 6 5 5 5 5 5 5 6 6 6 6 6 7 6 6 6 6 4 3 2 2 3 3 3 3 3 3 2 3 3 4 4 4 4 3 2 2 2 2 2 2 3 4 6 7 8 8 8 9
3 3 4 4 3 3 3 3 3 3 4 4 4 5 5 5 5 5 5 5 5 5 6 6 6 6 8 9 10 11 10 10 10 9 9 8 7 6 6 6 5 5 5 5 5 6 6 6 6 6 6 6 6 6 5 4 3 3 3 2 2 3 3 3 3 3 4 4 4 4 4 2 2 1 1 1 0 1 2 2 3 3 3 3 4 7
4 4 3 4 3 3 3 4 4 4 4 5 5 5 5 5 5 4 4 4 5 5 5 6 6 6 7 7 8 9 9 8 8 8 7 6 6 5 6 6 6 6 6 5 6 6 7 7 7 7 7 6 6 6 5 4 4 4 4 3 3 3 3 3 4 4 4 4 4 4 3 2 1 1 1 1 1 2 2 2 2 2 1 1 2 3
4 4 4 4 4 4 4 4 4 4 4 4 4 4 4 4 4 4 3 4 4 4 5 5 5 5 5 5 6 6 7 7 8 8 6 7 7 7 6 6 6 6 6 6 6 6 7 7 7 7 7 7 7 7 7 6 6 7 7 5 4 3 3 4 4 4 4 4 4 4 4 3 2 2 2 2 2 2 2 2 2 2 2 1 1 1
5 4 4 4 4 4 4 4 5 5 5 4 4 3 3 3 3 4 4 4 4 4 3 4 4 4 5 5 5 6 6 7 7 8 8 8 8 8 7 6 6 6 6 6 7 7 7 7 7 7 6 6 6 6 5 5 6 6 7 6 5 3 2 3 3 3 3 4 3 4 4 3 2 2 2 2 2 1 1 2 3 3 3 2 2 2
4 4 4 4 4 4 4 5 5 5 4 3 3 3 3 3 4 4 5 5 5 5 5 4 4 5 5 6 5 5 5 5 6 7 7 8 8 8 7 7 7 6 6 6 6 6 6 7 7 6 6 5 5 5 6 5 5 5 6 6 5 4 2 2 1 1 2 3 3 3 3 2 2 1 0 0 1 1 1 2 4 5 5 3 3 3
4 4 4 4 4 4 4 4 4 3 3 4 4 4 4 4 4 4 5 5 5 5 5 4 4 5 6 6 6 5 5 4 5 6 6 7 8 7 7 7 7 6 6 6 6 6 5 6 6 6 5 5 5 6 6 6 6 5 5 6 6 5 4 2 1 2 2 2 2 2 2 2 1 1 1 1 1 1 1 1 2 3 4 3 3 3
4 4 4 4 4 3 3 3 3 3 3 4 4 4 4 4 4 4 4 5 5 5 5 5 4 4 4 5 5 5 5 5 5 4 5 6 8 9 8 7 6 6 6 6 6 6 6 6 6 5 5 5 6 6 6 7 7 6 6 6 5 5 4 2 2 2 2 3 2 2 2 2 2 2 1 1 1 2 2 2 2 3 3 2 2 3
3 3 4 3 3 3 4 4 4 4 4 4 4 4 4 4 3 4 4 5 5 5 4 4 4 4 4 5 5 5 5 5 5 5 4 4 5 5 5 5 5 5 5 6 6 6 6 6 6 6 6 6 6 6 7 6 6 6 5 4 4 3 3 2 2 2 2 3 2 2 2 2 2 2 1 1 2 3 3 2 2 3 3 3 3 3
3 4 3 3 3 3 4 4 4 4 5 4 4 4 4 4 4 3 4 4 4 4 5 4 4 4 5 5 5 5 6 6 6 6 6 5 4 4 4 4 5 6 5 6 6 6 7 7 7 7 6 6 6 6 5 5 5 5 4 3 2 2 2 2 1 1 2 2 2 3 3 2 2 2 1 0 2 2 3 3 3 3 3 3 3 3
4 4 4 3 3 4 4 4 4 4 5 5 4 4 4 4 4 4 4 3 4 4 5 4 4 4 5 5 5 5 6 7 7 6 6 6 5 5 4 4 4 5 5 6 7 7 7 7 7 7 7 6 6 5 4 4 3 3 3 2 2 2 2 2 1 1 2 2 3 3 3 2 2 2 2 0 1 2 3 3 3 3 3 3 3 3
3 4 4 4 4 4 4 4 4 4 5 5 4 4 3 3 4 5 4 4 4 4 4 5 5 5 5 5 5 5 6 7 6 6 6 5 5 5 5 4 4 3 4 4 5 5 6 6 7 8 7 7 6 6 5 3 3 2 1 2 2 2 2 1 1 2 2 2 2 3 2 2 2 2 3 1 0 2 3 3 3 3 3 3 3 3
4 4 4 4 5 5 5 5 5 5 5 5 5 4 3 2 3 3 3 4 4 4 4 4 5 5 5 5 5 5 6 6 5 5 5 4 4 5 5 4 4 3 3 3 3 3 3 3 5 6 8 8 8 6 5 3 2 1 1 1 1 1 1 1 1 2 2 2 2 2 2 2 2 2 3 2 1 1 3 3 4 4 3 3 2 3
4 4 4 5 5 5 5 5 5 5 5 5 4 4 3 3 3 3 3 3 4 4 4 4 4 5 5 5 5 5 6 6 5 5 5 4 5 5 6 5 5 4 3 2 2 2 1 1 2 3 5 7 8 7 5 3 2 1 1 1 1 1 1 1 1 2 2 2 2 2 2 2 2 2 2 2 1 0 2 3 3 4 4 3 3 3
Wind_Direction
282 284 285 281 282 283 282 279 279 282 284 286 287 288 288 288 287 285 284 284 283 281 280 279 278 278 279 281 282 283 284 285 286 287 287 287 287 287 287 287 287 287 287 287 287 286 286 286 285 285 285 285 284 284 283 283 282 282 282 282 282 281 281 281 281 281 280 280 280 280 279 278 277 276 274 274 274 275 276 277 278 279 280 280 279 279
285 286 287 284 282 282 283 278 275 275 279 282 284 286 288 287 287 286 285 282 280 277 276 276 276 275 274 276 279 282 283 284 285 286 287 287 287 287 288 288 288 287 287 287 287 286 286 286 286 286 286 285 285 284 284 283 283 282 282 282 282 282 282 282 281 281 281 280 280 281 281 280 280 279 277 276 276 276 277 277 278 278 278 278 278 278
290 289 287 284 281 280 281 280 276 272 273 277 279 281 283 284 284 284 284 283 281 277 274 274 274 275 274 275 278 280 282 283 284 285 286 286 287 287 287 287 287 287 287 287 287 287 287 287 287 287 287 286 286 285 285 284 284 283 283 283 283 282 282 282 282 281 281 281 281 282 282 283 283 282 281 280 279 279 278 278 278 278 278 278 278 278
287 286 285 284 280 276 275 277 277 275 272 274 276 277 277 278 278 278 278 279 279 278 276 273 272 272 273 274 276 278 280 282 283 284 285 286 286 286 287 287 287 287 288 288 288 289 289 288 288 288 288 287 287 286 286 285 285 284 284 284 283 283 283 283 282 281 281 280 281 282 283 284 285 286 285 285 284 283 282 282 282 281 281 280 279 279
280 281 283 284 282 277 272 273 274 275 275 275 275 274 272 271 272 274 276 276 277 277 277 274 271 269 270 271 275 277 279 281 283 284 284 285 286 286 287 287 287 288 288 288 289 289 289 288 288 288 287 287 286 286 285 285 284 284 283 283 283 282 282 282 281 281 280 279 279 279 280 282 283 285 286 286 286 285 285 284 283 283 282 281 280 280
278 278 280 280 280 280 280 276 275 276 277 276 273 271 269 268 270 273 276 277 277 277 277 275 272 270 268 269 273 276 279 281 283 284 284 285 285 286 286 286 287 287 287 287 288 288 287 287 287 286 286 285 285 284 284 283 283 282 282 281 281 280 280 280 280 280 280 279 279 279 279 280 281 282 283 283 283 283 283 282 281 281 280 280 280 280
276 276 278 277 277 277 277 275 273 273 274 276 275 273 271 270 270 270 270 272 274 276 277 276 274 272 269 268 271 275 278 281 282 283 284 284 285 285 285 285 285 286 285 285 285 285 285 285 285 285 284 284 284 284 283 283 282 282 282 282 281 281 281 280 280 280 280 280 280 280 280 279 279 278 278 278 278 278 278 277 277 278 278 279 280 280
276 276 274 276 276 276 273 271 268 267 269 273 276 278 279 277 273 272 270 269 270 272 276 278 277 274 270 267 268 271 274 277 279 281 282 282 282 281 282 282 283 283 283 283 283 284 284 284 284 285 285 285 285 285 285 284 284 284 284 285 284 284 284 283 283 282 282 282 281 281 280 278 276 275 274 273 273 273 274 274 275 276 277 279 280 280
272 274 273 272 274 277 277 273 269 266 267 271 274 277 280 281 281 280 280 277 274 272 274 279 281 279 275 270 266 266 267 269 270 272 275 275 275 276 277 278 280 281 282 282 283 283 284 284 285 285 286 286 286 287 287 287 287 287 287 287 287 287 287 287 286 284 284 283 282 280 279 277 275 273 271 270 270 270 271 272 273 275 277 278 279 279
264 268 271 270 269 271 275 276 273 268 263 267 268 269 273 278 282 285 285 283 281 277 274 277 280 281 281 276 269 264 265 267 269 271 273 273 274 276 277 278 280 281 282 282 283 283 284 284 285 286 286 287 287 287 287 288 288 288 288 288 288 288 287 286 285 284 283 282 281 280 278 276 275 273 271 270 270 270 270 271 272 273 274 275 276 277
261 262 266 268 267 266 266 271 273 271 260 262 262 262 261 266 272 277 280 281 282 282 278 275 275 278 281 281 276 269 264 267 270 272 273 275 276 278 279 279 280 280 281 281 282 282 283 283 284 285 285 285 286 286 286 287 287 287 287 286 286 285 285 284 283 282 281 280 279 278 277 276 275 274 273 272 271 270 270 270 271 271 272 272 273 275
261 263 263 265 265 266 265 268 271 270 263 263 262 262 258 254 256 262 268 273 277 281 282 279 276 274 276 280 281 279 272 270 271 272 273 273 274 275 276 277 277 278 278 279 280 280 281 281 281 282 282 282 283 283 283 283 284 284 284 284 283 283 282 281 281 280 279 278 278 277 276 275 275 274 273 272 272 271 271 270 270 270 271 271 272 273
259 261 263 263 263 264 266 270 271 270 265 262 262 262 261 255 251 252 258 265 271 276 282 283 281 277 273 275 277 279 277 274 272 271 271 270 268 266 267 269 270 270 271 273 273 274 275 276 278 278 278 278 279 280 280 281 281 282 282 282 281 281 280 280 279 278 277 276 276 275 275 274 273 273 272 271 271 270 270 270 270 270 270 271 272 273
260 260 260 260 260 260 262 265 267 267 264 261 260 262 265 266 264 263 265 267 269 273 277 280 281 280 278 274 271 270 270 271 271 271 270 266 261 255 254 260 262 262 260 263 263 263 264 266 269 272 273 274 275 277 277 279 279 279 279 279 279 279 278 277 277 276 275 275 274 273 273 272 272 271 270 269 269 268 268 268 268 268 268 269 270 271
258 259 259 258 257 257 257 260 261 262 262 260 262 266 271 272 272 270 269 271 272 274 276 276 277 278 278 273 267 260 257 260 265 269 270 266 258 245 236 251 259 262 257 257 258 259 258 256 256 259 263 263 265 267 269 272 274 275 276 276 276 276 276 275 275 274 273 273 272 272 271 271 270 269 268 268 267 267 266 266 266 266 266 267 269 270
258 258 259 259 258 258 259 261 262 263 262 261 262 264 269 269 269 268 268 271 274 276 275 276 278 278 277 269 258 247 244 249 255 262 268 269 260 237 208 233 253 261 258 254 255 256 254 248 245 246 250 256 260 263 265 268 270 272 273 273 274 274 274 273 273 273 272 271 271 270 270 269 269 268 267 267 266 266 265 265 265 265 266 267 269 271
266 264 264 266 268 269 270 268 266 265 264 264 262 260 260 264 267 268 269 272 274 274 270 270 273 277 283 281 267 239 216 227 242 257 265 270 265 238 190 210 242 258 261 255 254 252 250 247 244 244 245 252 258 262 265 267 269 271 272 273 273 273 273 273 272 272 271 271 270 269 269 268 268 268 267 267 267 266 266 266 266 266 267 269 271 272
268 269 274 278 279 280 279 276 271 267 265 263 261 260 259 261 264 267 268 268 268 267 265 262 262 266 276 284 282 259 189 205 235 261 269 273 270 253 190 200 231 253 261 260 256 252 247 245 243 243 247 255 259 262 266 268 270 271 273 273 274 274 273 273 273 272 272 271 270 270 269 268 268 268 268 267 267 267 267 267 268 268 269 271 272 274
268 271 277 281 283 282 281 279 274 267 257 255 258 263 264 263 262 261 261 260 260 260 261 261 260 261 265 273 277 277 241 233 248 264 269 273 274 268 216 208 234 252 260 260 258 254 248 247 247 249 252 258 261 264 267 270 271 273 274 274 275 274 274 274 274 273 273 272 271 271 270 270 269 269 268 268 268 268 268 269 270 270 271 272 273 275
275 277 279 283 284 283 280 273 264 253 247 252 258 263 265 265 264 262 262 262 263 265 266 267 268 268 270 275 279 281 276 265 262 263 263 269 273 272 250 234 244 255 260 260 258 253 248 247 250 253 256 259 262 265 268 270 272 273 275 275 275 275 274 274 274 273 273 273 272 272 271 271 270 270 269 269 268 269 269 270 270 271 272 273 274 275
280 277 273 275 279 280 278 269 259 255 258 263 265 265 264 266 268 269 273 277 280 282 283 280 279 279 282 282 283 284 284 277 270 266 264 265 267 267 259 244 246 254 260 261 258 252 244 244 245 248 252 257 260 263 266 269 271 273 274 274 274 274 273 273 273 273 273 273 273 272 272 271 271 270 270 269 269 269 269 270 271 272 273 274 275 276
276 272 268 268 270 272 274 271 267 266 268 269 267 265 265 269 273 279 287 294 296 295 292 288 287 287 287 285 284 284 285 279 271 266 269 267 266 265 263 254 252 256 261 262 259 249 237 238 240 243 246 252 257 261 264 267 270 272 273 273 273 273 272 272 272 272 272 272 272 272 272 271 271 270 270 269 269 270 270 271 272 273 274 275 277 278
267 269 272 270 268 267 267 265 265 264 266 265 264 263 265 267 274 282 293 297 297 294 291 287 285 284 282 279 279 279 277 270 265 263 265 265 266 267 268 265 264 263 263 264 261 252 236 235 237 241 246 251 255 259 263 266 269 271 272 272 272 272 271 271 271 271 271 271 271 271 271 271 270 270 270 270 270 270 271 272 273 274 276 277 278 279
263 267 271 269 266 263 259 255 253 252 252 254 256 259 259 259 265 274 285 290 292 292 290 289 288 285 282 279 277 274 268 260 254 254 259 263 266 269 271 270 269 269 267 266 262 253 241 239 237 237 241 248 253 257 261 265 268 270 271 271 271 271 270 270 270 270 271 271 271 271 271 270 270 270 269 269 269 270 271 272 274 276 278 279 281 282
263 265 268 270 273 274 270 264 258 254 254 256 259 263 264 269 277 287 293 294 294 294 295 295 293 292 291 289 285 279 269 252 244 243 254 264 268 268 265 264 266 268 270 270 265 255 248 248 244 239 236 244 250 254 259 263 265 267 269 269 270 270 270 270 270 270 270 270 271 270 270 270 270 269 269 269 269 270 271 273 275 277 279 281 283 284
276 278 281 284 287 289 288 286 282 281 285 289 290 289 289 297 303 306 305 301 299 299 300 296 293 292 293 294 291 286 282 263 244 237 247 264 270 269 261 257 259 264 270 272 269 259 251 253 250 243 233 239 246 251 255 259 262 264 266 267 268 269 269 270 270 270 270 270 270 270 270 270 269 269 269 269 269 270 272 274 276 278 280 282 284 286
285 286 289 292 295 298 301 303 304 304 305 308 310 311 312 317 315 307 296 295 298 301 298 293 291 291 292 290 289 289 296 295 280 261 251 263 269 270 264 257 257 263 269 271 265 255 250 253 252 246 238 231 236 244 251 254 258 261 263 265 267 268 269 269 270 270 270 271 271 271 270 270 269 269 268 269 270 271 273 275 277 279 281 283 285 289
284 286 289 293 297 303 309 315 318 318 317 315 314 314 315 316 309 298 288 292 296 296 288 285 287 290 291 291 292 295 301 295 287 278 267 264 265 266 268 267 263 264 269 271 266 256 251 252 252 250 245 235 232 237 245 249 253 257 260 263 265 266 268 269 269 270 270 271 271 271 271 270 269 269 269 269 270 272 274 276 278 280 283 285 289 298
279 282 285 291 297 305 312 316 317 316 315 314 314 314 315 312 299 289 285 292 294 289 282 281 282 285 289 291 293 293 290 279 276 281 294 280 272 274 287 290 284 278 277 279 276 267 255 250 247 245 246 242 235 233 239 244 249 254 257 260 262 264 266 267 269 270 271 271 271 271 271 270 270 269 269 270 271 273 274 276 278 280 283 286 287 286
278 284 290 296 303 309 314 315 315 313 313 313 313 313 313 308 294 285 285 288 287 283 281 282 282 283 286 289 290 286 278 266 270 295 337 309 295 294 317 313 304 294 289 290 286 277 264 254 247 244 252 253 248 241 238 240 243 247 253 257 260 262 264 265 267 268 270 270 271 271 271 270 270 270 270 271 272 273 275 276 277 278 278 277 273 273
300 303 301 301 303 307 309 306 305 306 308 308 308 308 306 300 290 283 282 281 277 277 280 283 283 283 282 284 283 281 276 269 280 318 358 319 298 295 313 302 289 272 233 251 273 282 279 272 269 274 294 286 273 259 246 239 238 240 242 250 256 259 260 261 263 265 267 268 269 269 270 270 270 270 270 271 273 274 276 277 278 280 284 279 276 277
292 291 287 287 289 293 294 294 294 295 297 299 298 297 294 292 288 283 280 276 272 272 278 283 284 282 278 275 273 272 275 277 290 307 326 303 288 282 279 277 273 265 234 227 245 265 278 279 281 286 304 290 276 266 254 241 234 232 230 234 243 251 254 255 257 260 262 264 265 266 267 268 269 270 271 272 274 276 278 279 281 283 288 281 275 273
277 280 281 284 287 287 286 287 287 287 286 287 286 285 285 285 283 281 278 272 267 267 272 280 283 282 279 275 271 270 271 275 283 290 292 285 280 277 272 273 277 280 276 253 249 256 266 273 278 281 278 264 258 257 256 242 231 223 216 220 230 242 247 247 249 252 252 257 260 263 265 268 270 271 273 275 277 279 281 283 284 285 285 276 266 264
278 282 283 287 288 288 287 286 286 284 283 282 281 280 278 278 277 277 275 270 263 258 257 268 276 280 281 278 275 273 272 271 275 278 280 277 276 280 289 296 301 304 305 293 283 276 272 273 277 280 276 265 255 250 250 244 234 222 210 212 220 230 237 232 231 236 241 244 251 258 263 268 272 275 276 278 279 281 283 284 285 286 286 279 273 269
285 286 287 288 290 291 292 292 289 286 283 280 278 276 275 273 271 271 270 268 263 257 251 255 263 270 275 278 279 278 277 278 282 285 286 283 282 285 291 290 294 298 299 294 291 290 286 284 285 286 288 283 272 258 248 250 250 246 231 222 224 227 228 217 215 218 227 228 235 243 249 257 266 272 274 276 277 278 280 282 284 286 288 287 287 287
294 294 292 290 290 292 294 293 291 289 286 281 276 272 270 268 267 265 265 266 266 265 262 258 258 261 266 271 275 278 282 286 291 293 291 287 283 281 280 277 277 279 281 281 281 282 282 284 285 285 285 285 281 274 265 280 306 309 284 252 243 239 234 220 207 203 208 217 226 232 233 235 240 249 259 268 273 276 279 283 286 289 291 293 294 294
299 295 292 289 286 288 290 289 289 287 286 283 279 275 272 270 268 268 268 266 267 268 269 266 264 261 261 263 267 272 278 283 285 284 281 279 276 275 274 274 271 268 267 271 273 274 275 278 279 279 277 276 276 277 277 297 321 313 278 257 249 246 246 232 210 195 198 213 222 228 225 223 226 237 250 266 273 281 286 288 290 292 294 296 297 297
296 293 291 287 283 281 284 285 286 287 287 287 286 284 280 275 272 271 271 269 266 266 268 268 267 265 263 263 264 266 270 272 273 272 270 269 268 267 269 271 269 264 260 264 268 271 271 273 274 275 273 271 272 273 274 272 269 262 256 253 249 248 246 235 215 201 203 216 226 230 229 220 215 222 249 266 284 300 298 293 292 293 296 298 299 299
290 289 289 290 288 286 285 287 289 290 290 288 286 286 284 281 278 274 271 269 266 264 264 265 267 268 266 266 266 267 269 270 269 268 267 264 263 264 266 269 268 266 262 261 262 263 264 265 267 269 272 273 273 271 270 264 258 253 253 264 268 261 245 227 213 208 211 216 226 233 235 224 205 197 221 234 259 278 281 286 289 292 301 310 307 303
291 293 293 299 304 305 302 298 295 292 291 289 288 288 288 288 285 280 273 271 271 269 266 266 267 268 267 267 267 268 269 270 269 268 266 262 259 259 262 265 267 267 265 261 257 256 256 258 259 260 262 265 268 268 266 261 257 254 255 262 263 254 238 217 209 208 208 210 217 224 230 222 205 196 208 211 215 223 234 251 270 286 299 308 308 306
302 306 308 312 311 308 299 295 292 290 287 287 288 289 288 289 289 287 283 283 281 279 277 275 273 271 270 266 264 263 262 263 263 262 260 256 254 252 253 256 260 263 264 261 258 256 255 257 259 259 258 259 261 262 261 258 256 255 256 254 251 242 226 207 201 199 201 207 212 216 220 223 221 218 219 223 223 219 213 219 246 267 278 244 226 238
310 310 308 306 302 298 293 290 289 287 286 285 284 285 284 287 291 294 296 296 293 289 285 286 285 284 281 278 272 266 259 257 255 255 255 252 250 247 247 249 252 255 258 260 259 258 258 261 264 265 265 263 263 262 261 259 257 255 254 255 254 249 242 219 203 190 191 203 210 215 218 220 221 220 221 231 239 244 230 223 240 252 260 244 222 211
303 298 294 291 288 287 288 290 291 292 292 292 290 289 286 288 291 295 297 296 294 292 291 290 290 290 290 289 286 280 271 260 253 250 249 248 247 245 245 246 247 249 252 257 261 263 263 265 266 268 269 270 271 272 275 273 270 265 259 258 253 247 255 246 226 188 187 198 200 200 204 207 207 203 183 240 268 277 273 253 253 255 257 251 242 236
288 287 286 284 284 285 287 290 292 294 295 295 295 294 292 288 289 291 293 292 292 292 293 292 290 288 286 287 288 288 287 277 264 254 249 247 245 244 245 245 245 246 246 253 260 265 267 266 265 266 268 271 272 273 275 276 275 271 264 256 246 236 227 216 181 158 170 187 184 178 177 171 145 102 64 3 313 296 285 269 267 266 263 254 248 248
284 286 286 286 288 291 294 294 294 294 293 292 290 289 288 286 288 290 291 291 291 291 290 291 289 286 283 285 288 291 295 295 290 281 268 259 256 254 250 247 246 247 247 249 254 260 264 266 268 269 269 267 266 266 267 270 272 272 268 255 241 229 210 175 145 146 157 163 158 145 140 131 116 95 54 349 317 300 289 277 275 274 274 266 255 252
284 285 284 286 290 295 298 298 296 293 288 286 283 281 282 282 283 284 285 286 288 289 287 286 285 284 285 291 296 300 302 302 302 300 295 281 268 258 251 246 245 246 247 248 250 252 255 260 266 270 271 266 263 260 259 263 267 270 268 250 234 216 190 153 136 142 150 146 139 130 126 119 112 103 89 312 302 298 290 270 261 263 271 276 272 267
282 283 287 293 298 299 298 296 292 289 286 284 281 278 278 279 279 281 282 283 287 291 293 292 291 291 294 300 303 305 306 304 303 302 302 299 292 280 266 255 247 244 244 245 246 246 247 250 254 258 262 263 263 262 259 257 259 260 257 234 211 196 184 171 159 148 141 132 130 131 132 123 117 118 136 287 302 302 299 285 267 258 259 267 273 276
286 292 298 301 300 296 291 287 285 284 284 284 282 280 278 282 290 295 295 298 300 301 303 304 303 302 302 302 302 302 300 299 299 299 299 300 299 295 285 274 260 250 245 244 244 244 244 243 244 246 251 256 261 265 266 257 251 246 234 204 188 184 187 181 157 133 124 126 133 139 145 140 141 143 145 129 315 309 307 305 296 281 262 259 263 270
294 298 299 296 293 289 285 282 282 283 285 288 289 289 286 290 300 306 308 309 307 305 303 303 303 302 301 299 296 295 294 292 291 292 294 296 298 298 296 288 277 266 256 248 245 244 244 243 241 240 241 245 252 259 265 258 246 230 204 175 168 170 173 163 138 125 126 130 135 139 144 136 134 135 131 126 256 297 307 309 306 296 280 267 261 262
292 291 291 289 286 284 283 283 285 288 290 291 294 297 303 304 307 308 307 304 302 299 297 299 300 300 298 296 293 292 292 291 291 292 295 298 302 304 303 299 293 286 278 265 255 250 250 253 248 243 237 236 238 244 254 250 235 196 160 152 148 149 149 139 134 136 140 140 136 130 123 104 100 106 113 122 145 291 308 311 306 299 292 288 278 270
288 287 285 283 282 281 283 286 288 289 289 290 296 306 321 322 317 310 305 302 300 299 299 299 299 298 297 297 297 297 298 297 299 302 305 309 311 311 310 307 303 298 290 283 276 272 273 285 287 272 251 236 230 230 240 229 200 163 155 159 145 129 127 125 129 137 143 137 131 125 120 110 105 108 118 122 120 346 323 315 306 298 295 300 301 298